Key West, FL

12:19 AM EDT on March 29, 2017 (GMT -0400)
Key West International

Weather History for KEYW - February, 2013

Change the Weather History Date:

Sunday, February 24, 2013

  Actual Average Record
Temperature  
Mean Temperature 79 °F 72 °F  
Max Temperature 82 °F 77 °F 84 °F (1994)
Min Temperature 75 °F 67 °F 53 °F (1901)
Degree Days  
Heating Degree Days 0 0  
Month to date heating degree days 7 19  
Since 1 July heating degree days 12 70  
Cooling Degree Days 14 7  
Month to date cooling degree days 200 155  
Year to date cooling degree days 491 320  
Growing Degree Days 28 (Base 50)    
Moisture  
Dew Point 73 °F    
Average Humidity 87    
Maximum Humidity 100    
Minimum Humidity 74    
Precipitation  
Precipitation 0.00 in 0.06 in 1.62 in (1892)
Month to date precipitation 0.81 1.24  
Year to date precipitation 1.10 3.28  
Snow  
Snow 0.00 in - - ()
Month to date snowfall 0.0  
Since 1 July snowfall 0.0  
Snow Depth 0.00 in    
Sea Level Pressure  
Sea Level Pressure 29.96 in    
Wind  
Wind Speed 5 mph (SSE)    
Max Wind Speed 9 mph    
Max Gust Speed 14 mph    
Visibility 9 miles    
Events      
T = Trace of Precipitation, MM = Missing Value Source: NWS Daily Summary

Daily Weather History Graph

Daily Weather History Graph

Search for Another Location

Airport or City:

Trip Planner

Search our weather history database for the weather conditions in past years. The results will help you decide how hot, cold, wet, or windy it might be!

Date:

Astronomy

Feb. 24, 2013 Rise Set
Actual Time 6:53 AM EST 6:27 PM EST
Civil Twilight 6:30 AM EST 6:50 PM EST
Nautical Twilight 6:04 AM EST 7:16 PM EST
Astronomical Twilight 5:37 AM EST 7:43 PM EST
Moon 5:36 PM EST (2/24) 5:47 AM EST (2/24)
Length of Visible Light 12h 19m
Length of Day
11h 33m
Waxing Gibbous, 99% of the Moon is Illuminated
Feb 24
Waxing Gibbous
Feb 25
Full
Mar 4
Last Quarter
Mar 11
New
Mar 19
First Quarter

Hourly Weather History & Observations

Time (EST) Temp. Heat Index Dew Point Humidity Pressure Visibility Wind Dir Wind Speed Gust Speed Precip Events Conditions
12:53 AM 75.9 °F - 73.0 °F 91% 29.99 in 9.0 mi SSE 3.5 mph - N/A   Partly Cloudy
1:53 AM 75.9 °F - 73.0 °F 91% 29.97 in 9.0 mi SSE 3.5 mph - N/A   Mostly Cloudy
2:53 AM 75.9 °F - 73.9 °F 94% 29.96 in 9.0 mi Calm Calm - N/A   Scattered Clouds
3:53 AM 75.9 °F - 73.9 °F 94% 29.94 in 8.0 mi South 4.6 mph - N/A   Clear
4:53 AM 75.9 °F - 73.9 °F 94% 29.95 in 8.0 mi SSW 3.5 mph - N/A   Clear
5:53 AM 75.9 °F - 73.0 °F 91% 29.95 in 8.0 mi South 3.5 mph - N/A   Clear
6:53 AM 75.0 °F - 73.0 °F 94% 29.96 in 7.0 mi Calm Calm - N/A   Scattered Clouds
7:02 AM 75.2 °F - 73.4 °F 94% 29.96 in 6.0 mi SE 3.5 mph - N/A   Mostly Cloudy
7:29 AM 75.2 °F - 73.4 °F 94% 29.97 in 8.0 mi South 3.5 mph - N/A   Scattered Clouds
7:53 AM 75.9 °F - 75.0 °F 97% 29.99 in 7.0 mi SSW 3.5 mph - N/A   Clear
8:53 AM 77.0 °F - 73.9 °F 90% 30.01 in 9.0 mi South 5.8 mph - N/A   Clear
9:53 AM 78.1 °F - 73.9 °F 87% 30.01 in 9.0 mi South 5.8 mph - N/A   Clear
10:53 AM 79.0 °F - 73.9 °F 84% 30.01 in 9.0 mi South 4.6 mph - N/A   Clear
11:53 AM 80.1 °F 84.5 °F 73.9 °F 81% 30.00 in 8.0 mi SSE 5.8 mph - N/A   Clear
12:53 PM 80.1 °F 83.8 °F 72.0 °F 76% 29.97 in 9.0 mi South 5.8 mph - N/A   Clear
1:53 PM 81.0 °F 85.8 °F 73.0 °F 77% 29.96 in 9.0 mi SSE 5.8 mph - N/A   Clear
2:53 PM 81.0 °F 85.2 °F 72.0 °F 74% 29.94 in 7.0 mi SSE 5.8 mph - N/A   Clear
3:53 PM 81.0 °F 85.2 °F 72.0 °F 74% 29.93 in 8.0 mi SSE 3.5 mph - N/A   Clear
4:53 PM 81.0 °F 85.2 °F 72.0 °F 74% 29.92 in 9.0 mi ESE 5.8 mph - N/A   Clear
5:53 PM 80.1 °F 83.8 °F 72.0 °F 76% 29.93 in 9.0 mi East 5.8 mph - N/A   Clear
6:53 PM 78.1 °F - 71.1 °F 79% 29.93 in 10.0 mi ESE 5.8 mph - N/A   Clear
7:53 PM 78.1 °F - 73.0 °F 84% 29.95 in 10.0 mi Calm Calm - N/A   Clear
8:53 PM 77.0 °F - 73.0 °F 88% 29.96 in 10.0 mi ESE 5.8 mph - N/A   Clear
9:53 PM 77.0 °F - 72.0 °F 84% 29.95 in 10.0 mi ESE 5.8 mph - N/A   Clear
10:53 PM 77.0 °F - 73.9 °F 90% 29.94 in 9.0 mi ESE 5.8 mph - N/A   Clear
11:53 PM 77.0 °F - 73.9 °F 90% 29.92 in 10.0 mi SE 9.2 mph - N/A   Scattered Clouds